Location: Unspecified
(0.0000°N, 0.0000°E)
Time: 17:14:13
(UTC+00:00)

FENGYUN 1C DEB - Pass Details

Date: 20 February 2026
Orbit: 819 x 963 km, 99.2° (Epoch: 3 October)

Event Time Altitude Azimuth Distance (km) Brightness Sun altitude
Rises 05:12:52 0° 188° (S) 3,512 ? -14.9°
Reaches altitude 10° 05:15:39 10° 200° (SSW) 2,548 ? -14.3°
Maximum altitude 05:20:18 27° 256° (WSW) 1,614 ? -13.1°
Enters shadow 05:24:23 12° 309° (NW) 2,328 ? -12.1°
